ONEWEB-0204 (48225 NORAD) Tracking and Keplerian Element Data

This shows tracking and keplerian element data for the satellite.

Feedback or suggestion? Click here.




ElementValue
Catalog48225
NameONEWEB-0204
Epoch Orbit183
Epoch Day136.75001157
Epoch Year2021
RAAN305.7732
Inclination87.4209
Eccentricity0.0006429
Argument of Perigee171.1555
Mean Anonmoly28.1313
Mean Motion15.3122428
Decay Rate-0.01396993
L11 48225U 21031R 21136.75001157 -.01396993 00000-0 -51057-1 0 9998
L22 48225 87.4209 305.7732 0006429 171.1555 28.1313 15.31224280 1834

Live tracking and technical data element details for ONEWEB-0204 (NORAD 48225). ONEWEB-0204 can be tracked NOW for your location showing map with azimuth and elevation plus other details from your city location.

Track the satellite on the map from your city or location and see movement details for azimuth, elevation, latitude, longitude, range, height, and movement on the map or in text.







IsCatalogInMostPopularTable: catalog: 48225, numindb: 6
Update: records affected: 1



GetName: 48225 ONEWEB-0204

Hit Count: updated at: Mon, 17 May 2021 15:04:27 GMT